Regional Weather Roundup
Issued by NWS New Orleans/Baton Rouge, LA

Home | Current Version | Previous Version | Text Only | Print | Product List | Glossary On
Versions: 1 2 3 4 5 6 7 8 9 10 11 12 13 14 15 16 17 18 19 20 21 22 23 24 25 26 27
000
ASUS44 KLIX 111013
RWRLIX
NEW ORLEANS REGIONAL WEATHER ROUNDUP
NATIONAL WEATHER SERVICE NEW ORLEANS LA
400 AM CST SUN DEC 11 2016

NOTE: "FAIR" INDICATES FEW OR NO CLOUDS BELOW 12,000 FEET WITH NO
      SIGNIFICANT WEATHER AND/OR OBSTRUCTIONS TO VISIBILITY.
      SKY/WX - SKY CONDITION AND SIGNIFICANT WEATHER.
      TMP - AIR TEMPERATURE.     DP    - DEWPOINT TEMPERATURE.
      RH  - RELATIVE HUMIDITY.   PRES  - PRESSURE.
      HI  - HEAT INDEX.          WCI   - WIND CHILL INDEX.

*  THESE STATIONS ARE NOT NWS OR FAA STATIONS AND ARE NOT UNDER
   NWS QUALITY CONTROL.

LAZ038-040-048-061>063-065>067-069-111100-
SOUTHEAST LOUISIANA

CITY           SKY/WX    TMP DP  RH WIND       PRES   REMARKS
N.O. AUDUBON   NOT AVBL
N.O. INTL ARPT CLEAR     40  37  89 CALM      30.27F
N.O. LAKEFRONT CLEAR     48  41  76 E12       30.28F
N.O. DOWNTOWN*   N/A     48  41  76 NE10      30.28F
RESERVE*         N/A     40  38  94 CALM      30.27F
SLIDELL        CLEAR     32  30  92 N5        30.28F WCI  27
BATON ROUGE    MOCLDY    38  34  85 NE8       30.26F WCI  32
BOOTHVILLE     CLEAR     50  49  96 NE3       30.27F
BELLE CHASSE   CLEAR     41  38  89 NE5       30.26F
BOGALUSA*        N/A     32  29  88 CALM      30.32S
GALLIANO*      SUNNY     43  38  81 CALM      30.26F
NEW ROADS*     CLOUDY    45  34  66 SE9       30.23F
GONZALES*        N/A     35  33  92 CALM      30.27F
HAMMOND*       CLEAR     34  32  93 CALM      30.29F
HOUMA*         CLEAR     39  36  86 CALM      30.26F
PORT FOURCHON* SUNNY     52  46  82 NE8       30.25F

$$

MSZ070-080>082-111100-
SOUTHERN MISSISSIPPI

CITY           SKY/WX    TMP DP  RH WIND       PRES   REMARKS
MCCOMB         CLOUDY    32  27  81 CALM      30.28F
GULFPORT       CLOUDY    36  28  73 CALM      30.29F
BILOXI         CLOUDY    35  28  75 NE5       30.28F WCI  31
PASCAGOULA     CLEAR     33  26  75 CALM      30.30F

$$

COASTAL OBSERVATIONS
LAKE AND NEARSHORE STATIONS

STATION/POSITION TIME  TEMP    WIND        PRES    WAVE
                       AIR SEA DIR/SP/G            HT/PER
                 (UTC) (F)     (DEG/KT/KT) (MB)    (FT/S)
PASCAGOULA       0948   42      30/  7/  9 1025.3
WAVELAND YACHT   0942   43 48   60/  8/  8 1025.5
GRAND ISLE       0942   53 60   70/  9/ 11 1024.4
SOUTHWEST PASS   0948           40/ 10/ 12   N/A
NEW CANAL        0942   47 56   80/  6/  9 1024.4
SHELL BEACH      0942   52 53   60/  9/ 10 1025.1

OFFSHORE STATIONS

STATION/POSITION TIME  TEMP    WIND        PRES    WAVE
                       AIR SEA DIR/SP/G            HT/PER
                 (UTC) (F)     (DEG/KT/KT) (MB)    (FT/S)
64 S DAUPHIN ISL 0950   63 74  100/  6/ 10 1024.5    3/ 6

$$





USA.gov is the U.S. government's official web portal to all federal, state and local government web resources and services.